Fort Collins, CO

9:34 PM MDT on May 26, 2017 (GMT -0600)
Fort Collins-Loveland Municipal

Weather History for KFNL - May, 2013

Change the Weather History Date:

Tuesday, May 14, 2013

  Actual Average Record
Temperature  
Mean Temperature 68 °F -  
Max Temperature 84 °F - 84 °F (2013)
Min Temperature 51 °F - 33 °F (2008)
Degree Days  
Heating Degree Days 0    
Month to date heating degree days  
Cooling Degree Days 2    
Month to date cooling degree days  
Growing Degree Days 18 (Base 50)    
Moisture  
Dew Point 43 °F    
Average Humidity 41    
Maximum Humidity 77    
Minimum Humidity 21    
Precipitation  
Precipitation 0.00 in - 19.34 in (2005)
Sea Level Pressure  
Sea Level Pressure 30.00 in    
Wind  
Wind Speed 4 mph (WSW)    
Max Wind Speed 23 mph    
Max Gust Speed 44 mph    
Visibility 10 miles    
Events      
T = Trace of Precipitation, MM = Missing Value Source: NWS Daily Summary

Daily Weather History Graph

Daily Weather History Graph

Search for Another Location

Airport or City:

Trip Planner

Search our weather history database for the weather conditions in past years. The results will help you decide how hot, cold, wet, or windy it might be!

Date:

Astronomy

May. 14, 2013 Rise Set
Actual Time 5:44 AM MDT 8:09 PM MDT
Civil Twilight 5:13 AM MDT 8:39 PM MDT
Nautical Twilight 4:35 AM MDT 9:18 PM MDT
Astronomical Twilight 3:52 AM MDT 10:00 PM MDT
Moon 9:26 AM MDT (5/14) 11:57 PM MDT (5/14)
Length of Visible Light 15h 26m
Length of Day
14h 24m
Waxing Crescent, 19% of the Moon is Illuminated
May 14
Waxing Crescent
May 17
First Quarter
May 24
Full
May 31
Last Quarter
Jun 8
New

Hourly Weather History & Observations

Time (MDT) Temp. Dew Point Humidity Pressure Visibility Wind Dir Wind Speed Gust Speed Precip Events Conditions
12:15 AM 62.6 °F 44.6 °F 52% 30.05 in 10.0 mi NW 3.5 mph - N/A   Clear
12:35 AM 60.8 °F 44.6 °F 55% 30.04 in 10.0 mi NW 3.5 mph - N/A   Clear
12:55 AM 60.8 °F 44.6 °F 55% 30.04 in 10.0 mi WNW 3.5 mph - N/A   Clear
1:15 AM 62.6 °F 44.6 °F 52% 30.04 in 10.0 mi Calm Calm - N/A   Clear
1:35 AM 62.6 °F 44.6 °F 52% 30.03 in 10.0 mi Calm Calm - N/A   Clear
1:55 AM 62.6 °F 42.8 °F 48% 30.03 in 10.0 mi Calm Calm - N/A   Clear
2:15 AM 62.6 °F 42.8 °F 48% 30.03 in 10.0 mi Calm Calm - N/A   Clear
2:35 AM 59.0 °F 42.8 °F 55% 30.03 in 10.0 mi Calm Calm - N/A   Clear
2:55 AM 57.2 °F 42.8 °F 59% 30.02 in 10.0 mi Calm Calm - N/A   Clear
3:15 AM 60.8 °F 41.0 °F 48% 30.02 in 10.0 mi Calm Calm - N/A   Clear
3:35 AM 62.6 °F 39.2 °F 42% 30.02 in 10.0 mi North 3.5 mph - N/A   Clear
3:55 AM 60.8 °F 39.2 °F 45% 30.02 in 10.0 mi NNE 5.8 mph - N/A   Clear
4:15 AM 57.2 °F 39.2 °F 51% 30.02 in 10.0 mi NE 4.6 mph - N/A   Clear
4:35 AM 55.4 °F 39.2 °F 54% 30.03 in 10.0 mi Calm Calm - N/A   Clear
4:55 AM 57.2 °F 39.2 °F 51% 30.03 in 10.0 mi Calm Calm - N/A   Clear
5:15 AM 55.4 °F 39.2 °F 54% 30.03 in 10.0 mi Calm Calm - N/A   Clear
5:35 AM 51.8 °F 39.2 °F 62% 30.03 in 10.0 mi Calm Calm - N/A   Clear
5:55 AM 55.4 °F 39.2 °F 54% 30.03 in 10.0 mi Calm Calm - N/A   Clear
6:15 AM 53.6 °F 41.0 °F 62% 30.03 in 10.0 mi Calm Calm - N/A   Clear
6:35 AM 55.4 °F 46.4 °F 72% 30.04 in 10.0 mi Calm Calm - N/A   Clear
6:55 AM 55.4 °F 48.2 °F 77% 30.04 in 10.0 mi Calm Calm - N/A   Clear
7:15 AM 57.2 °F 48.2 °F 72% 30.04 in 10.0 mi Calm Calm - N/A   Clear
7:55 AM 62.6 °F 48.2 °F 59% 30.04 in 10.0 mi Calm Calm - N/A   Clear
8:15 AM 66.2 °F 44.6 °F 46% 30.05 in 10.0 mi Calm Calm - N/A   Clear
8:35 AM 68.0 °F 48.2 °F 49% 30.05 in 10.0 mi Calm Calm - N/A   Clear
8:55 AM 69.8 °F 50.0 °F 49% 30.05 in 10.0 mi North 3.5 mph - N/A   Clear
9:15 AM 69.8 °F 51.8 °F 53% 30.05 in 10.0 mi North 4.6 mph - N/A   Clear
9:35 AM 71.6 °F 50.0 °F 46% 30.04 in 10.0 mi North 3.5 mph - N/A   Clear
9:55 AM 73.4 °F 50.0 °F 44% 30.04 in 10.0 mi Calm Calm - N/A   Clear
10:15 AM 75.2 °F 48.2 °F 38% 30.04 in 10.0 mi Calm Calm - N/A   Clear
10:35 AM 78.8 °F 48.2 °F 34% 30.03 in 10.0 mi SE 5.8 mph - N/A   Clear
10:55 AM 80.6 °F 48.2 °F 32% 30.03 in 10.0 mi SSE 4.6 mph - N/A   Clear
11:15 AM 80.6 °F 46.4 °F 30% 30.03 in 10.0 mi SSW 3.5 mph - N/A   Clear
11:35 AM 82.4 °F 44.6 °F 26% 30.02 in 10.0 mi North 6.9 mph - N/A   Clear
11:55 AM 84.2 °F 42.8 °F 23% 30.02 in 10.0 mi West 6.9 mph - N/A   Clear
12:15 PM 82.4 °F 42.8 °F 25% 30.02 in 10.0 mi NW 20.7 mph 26.5 mph N/A   Clear
12:35 PM 80.6 °F 42.8 °F 26% 30.02 in 10.0 mi NW 18.4 mph 25.3 mph N/A   Clear
12:55 PM 78.8 °F 39.2 °F 24% 30.02 in 10.0 mi NW 23.0 mph 29.9 mph N/A   Clear
1:15 PM 75.2 °F 37.4 °F 25% 30.02 in 10.0 mi NNW 19.6 mph 43.7 mph N/A   Mostly Cloudy
1:35 PM 78.8 °F 35.6 °F 21% 30.00 in 10.0 mi NNW 12.7 mph 38.0 mph N/A   Partly Cloudy
1:55 PM 78.8 °F 39.2 °F 24% 30.00 in 10.0 mi WSW 11.5 mph 32.2 mph N/A   Clear
2:15 PM 78.8 °F 42.8 °F 28% 29.99 in 10.0 mi West 6.9 mph - N/A   Clear
2:35 PM 82.4 °F 41.0 °F 23% 29.98 in 10.0 mi SW 8.1 mph - N/A   Clear
2:55 PM 80.6 °F 39.2 °F 23% 29.96 in 10.0 mi SSW 6.9 mph - N/A   Clear
3:15 PM 82.4 °F 39.2 °F 21% 29.95 in 10.0 mi SSW 4.6 mph - N/A   Clear
3:35 PM 84.2 °F 41.0 °F 22% 29.95 in 10.0 mi SW 5.8 mph - N/A   Clear
3:55 PM 84.2 °F 41.0 °F 22% 29.94 in 10.0 mi South 8.1 mph - N/A   Clear
4:15 PM 82.4 °F 42.8 °F 25% 29.93 in 10.0 mi SSW 15.0 mph 24.2 mph N/A   Clear
4:35 PM 80.6 °F 42.8 °F 26% 29.93 in 10.0 mi SSW 18.4 mph 21.9 mph N/A   Clear
4:55 PM 78.8 °F 39.2 °F 24% 29.93 in 10.0 mi SW 9.2 mph - N/A   Clear
5:15 PM 77.0 °F 42.8 °F 29% 29.94 in 10.0 mi West 8.1 mph - N/A   Clear
5:35 PM 75.2 °F 44.6 °F 34% 29.95 in 10.0 mi West 9.2 mph - N/A   Clear
5:55 PM 75.2 °F 46.4 °F 36% 29.94 in 10.0 mi West 3.5 mph - N/A   Clear
6:15 PM 73.4 °F 46.4 °F 38% 29.95 in 10.0 mi Calm Calm - N/A   Clear
6:35 PM 75.2 °F 44.6 °F 34% 29.95 in 10.0 mi East 3.5 mph - N/A   Clear
6:55 PM 77.0 °F 44.6 °F 32% 29.95 in 10.0 mi ENE 6.9 mph - N/A   Scattered Clouds
7:15 PM 73.4 °F 44.6 °F 36% 29.95 in 10.0 mi SSE 11.5 mph - N/A   Partly Cloudy
7:35 PM 73.4 °F 42.8 °F 33% 29.95 in 10.0 mi SSE 16.1 mph 24.2 mph N/A   Clear
7:55 PM 71.6 °F 42.8 °F 35% 29.96 in 10.0 mi SSE 13.8 mph - N/A   Partly Cloudy
8:15 PM 68.0 °F 44.6 °F 43% 29.97 in 10.0 mi South 12.7 mph - N/A   Partly Cloudy
8:35 PM 68.0 °F 42.8 °F 40% 29.97 in 10.0 mi South 10.4 mph - N/A   Partly Cloudy
8:55 PM 66.2 °F 42.8 °F 43% 29.97 in 10.0 mi SSW 8.1 mph - N/A   Clear
9:15 PM 66.2 °F 42.8 °F 43% 29.98 in 10.0 mi SW 8.1 mph - N/A   Clear
9:35 PM 66.2 °F 42.8 °F 43% 29.97 in 10.0 mi SSW 10.4 mph - N/A   Clear
9:55 PM 66.2 °F 42.8 °F 43% 29.97 in 10.0 mi SW 8.1 mph - N/A   Clear
10:15 PM 66.2 °F 42.8 °F 43% 29.97 in 10.0 mi SW 8.1 mph - N/A   Clear
10:35 PM 66.2 °F 41.0 °F 40% 29.97 in 10.0 mi WSW 6.9 mph - N/A   Clear
10:55 PM 66.2 °F 41.0 °F 40% 29.96 in 10.0 mi West 4.6 mph - N/A   Clear
11:15 PM 66.2 °F 41.0 °F 40% 29.96 in 10.0 mi Calm Calm - N/A   Clear
11:55 PM 64.4 °F 41.0 °F 42% 29.95 in 10.0 mi South 6.9 mph - N/A   Clear